Location: Lombard
(41.8800°N, 88.0078°W)
Time: 13:00:15
(UTC-06:00)

BlueWalker 3 - Pass Details

Date: 29 January 2026
Orbit: 450 x 461 km, 53.2° (Epoch: 11 February)

Event Time Altitude Azimuth Distance (km) Brightness Sun altitude
Rises 17:42:25 0° 286° (WNW) 2,456 6.5 -7.6°
Reaches altitude 10° 17:45:14 10° 310° (NW) 1,583 5.0 -8.1°
Maximum altitude 17:47:27 15° 348° (NNW) 1,289 4.0 -8.5°
Drops below altitude 10° 17:49:39 10° 27° (NNE) 1,584 4.1 -8.9°
Enters shadow 17:50:28 - 36° (NE) 1,805 4.3 -9.1°
